Time,TemperatureF,DewpointF,PressureIn,WindDirection,WindDirectionDegrees,WindSpeedMPH,WindSpeedGustMPH,Humidity,HourlyPrecipIn,Conditions,Clouds,dailyrainin,SoftwareType,DateUTC
2013-08-12 00:02:00,53.0,52.0,-100.00,South,182,2.0,3.0,98,0.00,,,0.05,,2013-08-12 05:02:00,
2013-08-12 00:11:00,53.0,52.0,-100.00,South,182,2.0,3.0,98,0.00,,,0.05,,2013-08-12 05:11:00,
2013-08-12 00:22:00,53.0,52.0,-100.00,South,182,2.0,3.0,98,0.00,,,0.05,,2013-08-12 05:22:00,
2013-08-12 00:32:00,53.0,52.0,-100.00,South,182,2.0,3.0,98,0.00,,,0.05,,2013-08-12 05:32:00,
2013-08-12 01:02:00,52.0,51.0,-100.00,South,179,0.0,3.0,98,0.00,,,0.05,,2013-08-12 06:02:00,
2013-08-12 01:11:00,52.0,51.0,-100.00,South,179,0.0,3.0,98,0.00,,,0.05,,2013-08-12 06:11:00,
2013-08-12 01:22:00,52.0,51.0,-100.00,South,179,0.0,3.0,98,0.00,,,0.05,,2013-08-12 06:22:00,
2013-08-12 01:32:00,52.0,51.0,-100.00,South,179,0.0,3.0,98,0.00,,,0.05,,2013-08-12 06:32:00,
2013-08-12 02:01:00,51.0,50.0,-100.00,South,180,0.0,0.0,98,0.00,,,0.05,,2013-08-12 07:01:00,
2013-08-12 02:12:00,51.0,50.0,-100.00,South,180,0.0,0.0,98,0.00,,,0.05,,2013-08-12 07:12:00,
2013-08-12 02:22:00,51.0,50.0,-100.00,South,180,0.0,0.0,98,0.00,,,0.05,,2013-08-12 07:22:00,
2013-08-12 02:33:00,51.0,50.0,-100.00,South,180,0.0,0.0,98,0.00,,,0.05,,2013-08-12 07:33:00,
2013-08-12 03:02:00,51.0,51.0,-100.00,South,186,0.0,0.0,99,0.00,,,0.05,,2013-08-12 08:02:00,
2013-08-12 03:11:00,51.0,51.0,-100.00,South,186,0.0,0.0,99,0.00,,,0.05,,2013-08-12 08:11:00,
2013-08-12 03:22:00,51.0,51.0,-100.00,South,186,0.0,0.0,99,0.00,,,0.05,,2013-08-12 08:22:00,
2013-08-12 03:33:00,51.0,51.0,-100.00,South,186,0.0,0.0,99,0.00,,,0.05,,2013-08-12 08:33:00,
2013-08-12 04:02:00,50.0,50.0,-100.00,South,190,2.0,4.0,99,0.00,,,0.05,,2013-08-12 09:02:00,
2013-08-12 04:11:00,50.0,50.0,-100.00,South,190,2.0,4.0,99,0.00,,,0.05,,2013-08-12 09:11:00,
2013-08-12 04:22:00,50.0,50.0,-100.00,South,190,2.0,4.0,99,0.00,,,0.05,,2013-08-12 09:22:00,
2013-08-12 04:32:00,50.0,50.0,-100.00,South,190,2.0,4.0,99,0.00,,,0.05,,2013-08-12 09:32:00,
2013-08-12 05:02:00,51.0,51.0,-100.00,SSW,192,2.0,4.0,99,0.00,,,0.05,,2013-08-12 10:02:00,
2013-08-12 05:12:00,51.0,51.0,-100.00,SSW,192,2.0,4.0,99,0.00,,,0.05,,2013-08-12 10:12:00,
2013-08-12 05:22:00,51.0,51.0,-100.00,SSW,192,2.0,4.0,99,0.00,,,0.05,,2013-08-12 10:22:00,
2013-08-12 05:32:00,51.0,51.0,-100.00,SSW,192,2.0,4.0,99,0.00,,,0.05,,2013-08-12 10:32:00,
2013-08-12 06:02:00,54.0,53.0,-100.00,SSW,193,3.0,5.0,98,0.00,,,0.05,,2013-08-12 11:02:00,
2013-08-12 06:12:00,54.0,53.0,-100.00,SSW,193,3.0,5.0,98,0.00,,,0.05,,2013-08-12 11:12:00,
2013-08-12 06:22:00,54.0,53.0,-100.00,SSW,193,3.0,5.0,98,0.00,,,0.05,,2013-08-12 11:22:00,
2013-08-12 06:32:00,54.0,53.0,-100.00,SSW,193,3.0,5.0,98,0.00,,,0.05,,2013-08-12 11:32:00,
2013-08-12 07:02:00,54.0,52.0,-100.00,SSE,153,1.0,5.0,93,0.00,,,0.05,,2013-08-12 12:02:00,
2013-08-12 07:11:00,54.0,52.0,-100.00,SSE,153,1.0,5.0,93,0.00,,,0.05,,2013-08-12 12:11:00,
2013-08-12 07:22:00,54.0,52.0,-100.00,SSE,153,1.0,5.0,93,0.00,,,0.05,,2013-08-12 12:22:00,
2013-08-12 07:32:00,54.0,52.0,-100.00,SSE,153,1.0,5.0,93,0.00,,,0.05,,2013-08-12 12:32:00,
2013-08-12 08:02:00,55.0,52.0,-100.00,SSW,192,2.0,5.0,91,0.00,,,0.05,,2013-08-12 13:02:00,
2013-08-12 08:11:00,55.0,52.0,-100.00,SSW,192,2.0,5.0,91,0.00,,,0.05,,2013-08-12 13:11:00,
2013-08-12 08:22:00,55.0,52.0,-100.00,SSW,192,2.0,5.0,91,0.00,,,0.05,,2013-08-12 13:22:00,
2013-08-12 08:33:00,55.0,52.0,-100.00,SSW,192,2.0,5.0,91,0.00,,,0.05,,2013-08-12 13:33:00,
2013-08-12 09:02:00,56.0,52.0,-100.00,NE,37,2.0,6.0,88,0.00,,,0.05,,2013-08-12 14:02:00,
2013-08-12 09:11:00,56.0,52.0,-100.00,NE,37,2.0,6.0,88,0.00,,,0.05,,2013-08-12 14:11:00,
2013-08-12 09:22:00,56.0,52.0,-100.00,NE,37,2.0,6.0,88,0.00,,,0.05,,2013-08-12 14:22:00,
2013-08-12 09:32:00,56.0,52.0,-100.00,NE,37,2.0,6.0,88,0.00,,,0.05,,2013-08-12 14:32:00,
2013-08-12 10:02:00,59.0,56.0,-100.00,East,94,2.0,7.0,89,0.00,,,0.01,,2013-08-12 15:02:00,
2013-08-12 10:11:00,59.0,56.0,-100.00,East,94,2.0,7.0,89,0.00,,,0.01,,2013-08-12 15:11:00,
2013-08-12 10:22:00,59.0,56.0,-100.00,East,94,2.0,7.0,89,0.00,,,0.01,,2013-08-12 15:22:00,
2013-08-12 10:33:00,59.0,56.0,-100.00,East,94,2.0,7.0,89,0.00,,,0.01,,2013-08-12 15:33:00,
2013-08-12 11:01:00,63.0,57.0,-100.00,NE,53,3.0,8.0,81,0.00,,,-99.99,,2013-08-12 16:01:00,
2013-08-12 11:11:00,63.0,57.0,-100.00,NE,53,3.0,8.0,81,0.00,,,-99.99,,2013-08-12 16:11:00,
2013-08-12 11:22:00,63.0,57.0,-100.00,NE,53,3.0,8.0,81,0.00,,,-99.99,,2013-08-12 16:22:00,
2013-08-12 11:33:00,63.0,57.0,-100.00,NE,53,3.0,8.0,81,0.00,,,-99.99,,2013-08-12 16:33:00,
2013-08-12 12:02:00,66.0,57.0,-100.00,NE,53,3.0,9.0,73,0.00,,,0.00,,2013-08-12 17:02:00,
2013-08-12 12:11:00,66.0,57.0,-100.00,NE,53,3.0,9.0,73,0.00,,,0.00,,2013-08-12 17:11:00,
2013-08-12 12:22:00,66.0,57.0,-100.00,NE,53,3.0,9.0,73,0.00,,,0.00,,2013-08-12 17:22:00,
2013-08-12 12:32:00,66.0,57.0,-100.00,NE,53,3.0,9.0,73,0.00,,,0.00,,2013-08-12 17:32:00,
2013-08-12 13:02:00,68.0,55.0,-100.00,NE,44,3.0,10.0,64,0.00,,,0.00,,2013-08-12 18:02:00,
2013-08-12 13:11:00,68.0,55.0,-100.00,NE,44,3.0,10.0,64,0.00,,,0.00,,2013-08-12 18:11:00,
2013-08-12 13:24:00,68.0,55.0,-100.00,NE,44,3.0,10.0,64,0.00,,,0.00,,2013-08-12 18:24:00,
2013-08-12 13:32:00,68.0,55.0,-100.00,NE,44,3.0,10.0,64,0.00,,,0.00,,2013-08-12 18:32:00,
2013-08-12 14:02:00,71.0,55.0,-100.00,NE,45,3.0,13.0,57,0.00,,,0.00,,2013-08-12 19:02:00,
2013-08-12 14:11:00,71.0,55.0,-100.00,NE,45,3.0,13.0,57,0.00,,,0.00,,2013-08-12 19:11:00,
2013-08-12 14:22:00,71.0,55.0,-100.00,NE,45,3.0,13.0,57,0.00,,,0.00,,2013-08-12 19:22:00,
2013-08-12 14:33:00,71.0,55.0,-100.00,NE,45,3.0,13.0,57,0.00,,,0.00,,2013-08-12 19:33:00,
2013-08-12 15:02:00,70.0,50.0,-100.00,NE,41,4.0,11.0,49,0.00,,,0.00,,2013-08-12 20:02:00,
2013-08-12 15:11:00,70.0,50.0,-100.00,NE,41,4.0,11.0,49,0.00,,,0.00,,2013-08-12 20:11:00,
2013-08-12 15:22:00,70.0,50.0,-100.00,NE,41,4.0,11.0,49,0.00,,,0.00,,2013-08-12 20:22:00,
2013-08-12 15:32:00,70.0,50.0,-100.00,NE,41,4.0,11.0,49,0.00,,,0.00,,2013-08-12 20:32:00,
2013-08-12 16:01:00,73.0,50.0,-100.00,NE,50,3.0,12.0,45,0.00,,,0.00,,2013-08-12 21:01:00,
2013-08-12 16:12:00,73.0,50.0,-100.00,NE,50,3.0,12.0,45,0.00,,,0.00,,2013-08-12 21:12:00,
2013-08-12 16:22:00,73.0,50.0,-100.00,NE,50,3.0,12.0,45,0.00,,,0.00,,2013-08-12 21:22:00,
2013-08-12 16:32:00,73.0,50.0,-100.00,NE,50,3.0,12.0,45,0.00,,,0.00,,2013-08-12 21:32:00,
2013-08-12 17:11:00,71.0,49.0,-100.00,NE,50,3.0,8.0,46,-99.99,,,-99.99,,2013-08-12 22:11:00,
2013-08-12 17:22:00,71.0,49.0,-100.00,NE,50,3.0,8.0,46,-99.99,,,-99.99,,2013-08-12 22:22:00,
2013-08-12 17:32:00,71.0,49.0,-100.00,NE,50,3.0,8.0,46,-99.99,,,-99.99,,2013-08-12 22:32:00,
2013-08-12 18:02:00,70.0,48.0,-100.00,NE,45,3.0,9.0,45,0.00,,,-99.99,,2013-08-12 23:02:00,
2013-08-12 18:11:00,70.0,48.0,-100.00,NE,45,3.0,9.0,45,0.00,,,-99.99,,2013-08-12 23:11:00,
2013-08-12 18:22:00,70.0,48.0,-100.00,NE,45,3.0,9.0,45,0.00,,,-99.99,,2013-08-12 23:22:00,
2013-08-12 18:34:00,70.0,48.0,-100.00,NE,45,3.0,9.0,45,-99.99,,,-99.99,,2013-08-12 23:34:00,
2013-08-12 19:12:00,69.0,50.0,-100.00,NNE,14,3.0,7.0,50,0.00,,,-99.99,,2013-08-13 00:12:00,
2013-08-12 19:24:00,69.0,50.0,-100.00,NNE,14,3.0,7.0,50,0.00,,,-99.99,,2013-08-13 00:24:00,
2013-08-12 19:34:00,69.0,50.0,-100.00,NNE,14,3.0,7.0,50,0.00,,,-99.99,,2013-08-13 00:34:00,
2013-08-12 20:13:00,60.0,46.0,-100.00,NNE,21,1.0,9.0,59,0.00,,,-99.99,,2013-08-13 01:13:00,
2013-08-12 20:23:00,60.0,46.0,-100.00,NNE,21,1.0,9.0,59,0.00,,,-99.99,,2013-08-13 01:23:00,
2013-08-12 20:33:00,60.0,46.0,-100.00,NNE,21,1.0,9.0,59,0.00,,,-99.99,,2013-08-13 01:33:00,
2013-08-12 21:11:00,55.0,48.0,-100.00,South,181,0.0,4.0,77,0.00,,,-99.99,,2013-08-13 02:11:00,
2013-08-12 21:22:00,55.0,48.0,-100.00,South,181,0.0,4.0,77,0.00,,,-99.99,,2013-08-13 02:22:00,
2013-08-12 21:32:00,55.0,48.0,-100.00,South,181,0.0,4.0,77,0.00,,,-99.99,,2013-08-13 02:32:00,
2013-08-12 22:11:00,50.0,47.0,-100.00,South,178,2.0,3.0,88,0.00,,,-99.99,,2013-08-13 03:11:00,
2013-08-12 22:22:00,50.0,47.0,-100.00,South,178,2.0,3.0,88,0.00,,,-99.99,,2013-08-13 03:22:00,
2013-08-12 22:33:00,50.0,47.0,-100.00,South,178,2.0,3.0,88,0.00,,,-99.99,,2013-08-13 03:33:00,
2013-08-12 23:12:00,47.0,45.0,-100.00,South,180,0.0,2.0,93,0.00,,,-99.99,,2013-08-13 04:12:00,
2013-08-12 23:23:00,47.0,45.0,-100.00,South,180,0.0,2.0,93,0.00,,,-99.99,,2013-08-13 04:23:00,
2013-08-12 23:33:00,47.0,45.0,-100.00,South,180,0.0,2.0,93,0.00,,,-99.99,,2013-08-13 04:33:00,